Columbia, MO

3:49 AM CDT on April 29, 2017 (GMT -0500)
Columbia Regional

Weather History for KCOU - May, 2011

Change the Weather History Date:

Tuesday, May 17, 2011

  Actual Average Record
Temperature  
Mean Temperature 52 °F 64 °F  
Max Temperature 64 °F 75 °F 91 °F (1996)
Min Temperature 39 °F 54 °F 35 °F (1895)
Degree Days  
Heating Degree Days 13 3  
Month to date heating degree days 141 78  
Since 1 July heating degree days 5101 4981  
Cooling Degree Days 0 3  
Month to date cooling degree days 49 28  
Year to date cooling degree days 82 53  
Growing Degree Days 2 (Base 50)    
Moisture  
Dew Point 38 °F    
Average Humidity 62    
Maximum Humidity 92    
Minimum Humidity 32    
Precipitation  
Precipitation 0.00 in 0.15 in 4.78 in (1995)
Month to date precipitation 2.02 2.83  
Year to date precipitation 14.45 14.40  
Snow  
Snow 0.00 in 0.00 in 0.00 in (2015)
Month to date snowfall 0.0  
Since 1 July snowfall 18.0  
Snow Depth -    
Sea Level Pressure  
Sea Level Pressure 29.95 in    
Wind  
Wind Speed 7 mph (NE)    
Max Wind Speed 15 mph    
Max Gust Speed 18 mph    
Visibility 10 miles    
Events      
T = Trace of Precipitation, MM = Missing Value Source: NWS Daily Summary

Daily Weather History Graph

Daily Weather History Graph

Search for Another Location

Airport or City:

Trip Planner

Search our weather history database for the weather conditions in past years. The results will help you decide how hot, cold, wet, or windy it might be!

Date:

Astronomy

May. 17, 2011 Rise Set
Actual Time 5:55 AM CDT 8:16 PM CDT
Civil Twilight 5:24 AM CDT 8:46 PM CDT
Nautical Twilight 4:47 AM CDT 9:23 PM CDT
Astronomical Twilight 4:06 AM CDT 10:04 PM CDT
Moon 8:58 PM CDT (5/17) 5:46 AM CDT (5/17)
Length of Visible Light 15h 21m
Length of Day
14h 20m
Full, 100% of the Moon is Illuminated
May 17
Full
May 24
Last Quarter
Jun 1
New
Jun 8
First Quarter
Jun 15
Full

Hourly Weather History & Observations

Time (CDT) Temp. Windchill Dew Point Humidity Pressure Visibility Wind Dir Wind Speed Gust Speed Precip Events Conditions
12:54 AM 46.0 °F 44.8 °F 39.9 °F 79% 30.00 in 10.0 mi North 3.5 mph - N/A   Clear
1:54 AM 45.0 °F 42.6 °F 39.0 °F 80% 29.99 in 10.0 mi NNW 4.6 mph - N/A   Clear
2:54 AM 43.0 °F 38.8 °F 37.9 °F 82% 29.98 in 10.0 mi North 6.9 mph - N/A   Clear
3:54 AM 42.1 °F 38.4 °F 37.0 °F 82% 29.99 in 10.0 mi North 5.8 mph - N/A   Clear
4:54 AM 41.0 °F 39.0 °F 37.0 °F 86% 29.98 in 10.0 mi NNW 3.5 mph - N/A   Clear
5:54 AM 39.0 °F 33.4 °F 37.0 °F 93% 29.99 in 10.0 mi NNE 8.1 mph - N/A   Clear
6:54 AM 43.0 °F 39.5 °F 37.9 °F 82% 30.00 in 10.0 mi NNE 5.8 mph - N/A   Clear
7:54 AM 48.0 °F - 39.0 °F 71% 30.01 in 10.0 mi ENE 8.1 mph - N/A   Clear
8:54 AM 52.0 °F - 36.0 °F 54% 30.01 in 10.0 mi ENE 9.2 mph - N/A   Clear
9:54 AM 55.9 °F - 36.0 °F 47% 30.01 in 10.0 mi NE 10.4 mph - N/A   Clear
10:54 AM 57.0 °F - 35.1 °F 44% 30.00 in 10.0 mi North 6.9 mph - N/A   Clear
11:54 AM 57.9 °F - 32.0 °F 37% 29.99 in 10.0 mi NNE 13.8 mph 18.4 mph N/A   Clear
12:54 PM 60.1 °F - 35.1 °F 39% 29.97 in 10.0 mi NE 11.5 mph - N/A   Clear
1:54 PM 61.0 °F - 35.1 °F 38% 29.95 in 10.0 mi NE 8.1 mph - N/A   Clear
2:54 PM 63.0 °F - 32.0 °F 31% 29.94 in 10.0 mi Variable 4.6 mph - N/A   Clear
3:54 PM 64.0 °F - 37.9 °F 38% 29.92 in 10.0 mi NNE 10.4 mph - N/A   Clear
4:54 PM 63.0 °F - 39.0 °F 41% 29.90 in 10.0 mi East 6.9 mph - N/A   Clear
5:54 PM 63.0 °F - 41.0 °F 45% 29.90 in 10.0 mi ENE 6.9 mph - N/A   Clear
6:54 PM 62.1 °F - 41.0 °F 46% 29.89 in 10.0 mi ENE 8.1 mph - N/A   Clear
7:54 PM 57.9 °F - 43.0 °F 58% 29.88 in 10.0 mi ENE 5.8 mph - N/A   Clear
8:54 PM 55.0 °F - 42.1 °F 62% 29.88 in 10.0 mi Calm Calm - N/A   Clear
9:54 PM 51.1 °F - 44.1 °F 77% 29.89 in 10.0 mi NE 4.6 mph - N/A   Clear
10:54 PM 51.1 °F - 43.0 °F 74% 29.89 in 10.0 mi ENE 3.5 mph - N/A   Clear
11:54 PM 50.0 °F - 43.0 °F 77% 29.88 in 10.0 mi ENE 4.6 mph - N/A   Clear